TimeMST,TemperatureF,Dew PointF,Humidity,Sea Level PressureIn,VisibilityMPH,Wind Direction,Wind SpeedMPH,Gust SpeedMPH,PrecipitationIn,Events,Conditions,WindDirDegrees,DateUTC
12:15 AM,41.0,19.4,42,29.99,10.0,South,12.7,17.3,N/A,,Clear,190,2013-03-08 07:15:00
12:35 AM,41.0,19.4,42,29.98,10.0,South,11.5,-,N/A,,Clear,190,2013-03-08 07:35:00
12:55 AM,41.0,19.4,42,29.98,10.0,South,9.2,17.3,N/A,,Clear,180,2013-03-08 07:55:00
1:15 AM,39.2,19.4,45,29.97,10.0,South,9.2,-,N/A,,Clear,190,2013-03-08 08:15:00
1:35 AM,41.0,19.4,42,29.96,10.0,South,9.2,-,N/A,,Clear,190,2013-03-08 08:35:00
1:55 AM,41.0,21.2,45,29.96,10.0,South,12.7,19.6,N/A,,Clear,190,2013-03-08 08:55:00
2:15 AM,42.8,21.2,42,29.96,10.0,SSW,12.7,-,N/A,,Clear,210,2013-03-08 09:15:00
2:35 AM,41.0,21.2,45,29.96,10.0,SW,13.8,25.3,N/A,,Clear,220,2013-03-08 09:35:00
2:55 AM,39.2,24.8,56,29.97,10.0,SW,13.8,27.6,N/A,,Clear,230,2013-03-08 09:55:00
3:15 AM,39.2,28.4,65,29.97,10.0,SW,12.7,18.4,N/A,,Clear,230,2013-03-08 10:15:00
3:35 AM,37.4,32.0,81,29.97,10.0,SW,13.8,25.3,N/A,,Clear,230,2013-03-08 10:35:00
3:55 AM,37.4,32.0,81,29.97,10.0,SSW,10.4,-,N/A,,Partly Cloudy,210,2013-03-08 10:55:00
4:15 AM,37.4,32.0,81,29.96,8.0,SSW,9.2,16.1,N/A,Rain,Light Rain,200,2013-03-08 11:15:00
4:35 AM,35.6,32.0,87,29.96,5.0,SSW,10.4,19.6,N/A,Rain,Light Rain,200,2013-03-08 11:35:00
4:55 AM,35.6,32.0,87,29.96,5.0,SSW,8.1,-,0.01,Rain,Light Rain,200,2013-03-08 11:55:00
5:15 AM,35.6,32.0,87,29.95,5.0,SSW,10.4,-,N/A,Rain,Light Rain,200,2013-03-08 12:15:00
5:35 AM,35.6,32.0,87,29.94,8.0,SSW,6.9,-,0.01,Rain,Light Rain,200,2013-03-08 12:35:00
5:55 AM,35.6,32.0,87,29.94,10.0,SSW,6.9,-,0.01,,Mostly Cloudy,210,2013-03-08 12:55:00
6:15 AM,35.6,33.8,93,29.95,10.0,SSW,8.1,-,N/A,Rain,Light Rain,210,2013-03-08 13:15:00
6:35 AM,35.6,33.8,93,29.94,9.0,South,9.2,-,N/A,Rain,Light Rain,180,2013-03-08 13:35:00
6:55 AM,35.6,32.0,87,29.93,8.0,South,9.2,-,N/A,Rain,Light Rain,180,2013-03-08 13:55:00
7:15 AM,35.6,32.0,87,29.93,9.0,South,13.8,19.6,N/A,,Overcast,170,2013-03-08 14:15:00
7:35 AM,35.6,32.0,87,29.91,5.0,South,16.1,19.6,N/A,Rain,Light Rain,170,2013-03-08 14:35:00
7:55 AM,35.6,33.8,93,29.91,7.0,South,16.1,24.2,N/A,Rain,Light Rain,190,2013-03-08 14:55:00
8:15 AM,37.4,35.6,93,29.90,10.0,South,19.6,26.5,N/A,,Partly Cloudy,190,2013-03-08 15:15:00
8:35 AM,37.4,35.6,93,29.91,10.0,South,18.4,26.5,N/A,,Scattered Clouds,190,2013-03-08 15:35:00
8:55 AM,37.4,33.8,87,29.91,7.0,South,18.4,25.3,N/A,Rain,Light Rain,190,2013-03-08 15:55:00
9:15 AM,37.4,33.8,87,29.91,5.0,South,17.3,24.2,N/A,Rain,Light Rain,190,2013-03-08 16:15:00
9:35 AM,39.2,35.6,87,29.90,9.0,South,23.0,27.6,N/A,Rain,Light Rain,190,2013-03-08 16:35:00
9:55 AM,39.2,35.6,87,29.89,10.0,South,19.6,27.6,N/A,,Overcast,190,2013-03-08 16:55:00
10:15 AM,39.2,35.6,87,29.90,2.5,South,24.2,33.4,N/A,Rain,Light Rain,180,2013-03-08 17:15:00
10:35 AM,39.2,35.6,87,29.89,7.0,South,25.3,32.2,N/A,,Mostly Cloudy,180,2013-03-08 17:35:00
10:55 AM,39.2,35.6,87,29.88,8.0,South,17.3,28.8,N/A,,Mostly Cloudy,180,2013-03-08 17:55:00
11:15 AM,39.2,35.6,87,29.87,8.0,South,18.4,27.6,N/A,Thunderstorm,Thunderstorm,170,2013-03-08 18:15:00
11:35 AM,39.2,35.6,87,29.85,10.0,South,18.4,27.6,N/A,Thunderstorm,Mostly Cloudy,170,2013-03-08 18:35:00
11:55 AM,39.2,35.6,87,29.85,4.0,SSW,12.7,-,0.01,Rain,Light Rain,210,2013-03-08 18:55:00
12:15 PM,32.0,30.2,93,29.88,0.2,West,19.6,26.5,0.03,Snow-Thunderstorm,Heavy Thunderstorms and Snow,260,2013-03-08 19:15:00
12:35 PM,32.0,30.2,93,29.87,0.5,SSW,8.1,-,0.08,Snow-Thunderstorm,Snow,210,2013-03-08 19:35:00
12:55 PM,32.0,32.0,100,29.85,3.0,SSW,9.2,-,0.08,Snow-Thunderstorm,Light Snow,200,2013-03-08 19:55:00
1:15 PM,32.0,32.0,100,29.84,2.5,SSE,10.4,-,N/A,Rain,Light Rain,160,2013-03-08 20:15:00
1:35 PM,32.0,32.0,100,29.82,1.8,South,8.1,-,0.01,Snow,Light Snow,180,2013-03-08 20:35:00
1:55 PM,32.0,32.0,100,29.80,5.0,South,12.7,-,0.01,Rain,Light Rain,190,2013-03-08 20:55:00
2:15 PM,32.0,32.0,100,29.79,2.0,South,11.5,-,0.01,Snow,Light Snow,170,2013-03-08 21:15:00
2:35 PM,33.8,32.0,93,29.79,3.0,South,15.0,19.6,0.01,Rain,Light Rain,190,2013-03-08 21:35:00
2:55 PM,32.0,32.0,100,29.80,1.2,South,17.3,26.5,0.03,Snow,Light Snow,190,2013-03-08 21:55:00
3:15 PM,35.6,32.0,87,29.77,4.0,South,17.3,29.9,0.01,Snow-Thunderstorm,Light Thunderstorms and Snow,190,2013-03-08 22:15:00
3:35 PM,37.4,32.0,81,29.77,10.0,South,17.3,25.3,0.01,Rain-Thunderstorm,Light Rain,190,2013-03-08 22:35:00
3:55 PM,37.4,33.8,87,29.76,4.0,SSW,21.9,29.9,0.01,Rain-Thunderstorm,Light Rain,210,2013-03-08 22:55:00
4:15 PM,35.6,32.0,87,29.77,0.8,South,12.7,28.8,0.04,Snow-Thunderstorm,Light Thunderstorms and Snow,180,2013-03-08 23:15:00
4:35 PM,32.0,32.0,100,29.77,1.0,SSW,25.3,33.4,0.07,Snow-Thunderstorm,Light Snow,200,2013-03-08 23:35:00
4:55 PM,32.0,30.2,93,29.77,0.2,SW,11.5,24.2,0.10,Snow,Heavy Snow,220,2013-03-08 23:55:00
5:15 PM,32.0,32.0,100,29.77,1.0,SSW,16.1,24.2,0.01,Snow,Light Snow,200,2013-03-09 00:15:00
5:35 PM,32.0,30.2,93,29.78,0.5,SSW,23.0,29.9,0.03,Snow,Snow,210,2013-03-09 00:35:00
5:55 PM,32.0,30.2,93,29.79,1.5,SSW,18.4,26.5,0.04,Rain,Light Rain,210,2013-03-09 00:55:00
6:15 PM,32.0,28.4,87,29.78,9.0,SW,19.6,27.6,N/A,,Mostly Cloudy,220,2013-03-09 01:15:00
6:35 PM,32.0,28.4,87,29.81,0.8,WSW,23.0,29.9,N/A,Snow,Light Snow,240,2013-03-09 01:35:00
6:55 PM,30.2,28.4,93,29.84,0.5,SW,13.8,25.3,N/A,Snow,Snow,230,2013-03-09 01:55:00
7:15 PM,28.4,26.6,93,29.84,2.5,WSW,18.4,24.2,N/A,Snow,Light Snow,240,2013-03-09 02:15:00
7:35 PM,28.4,24.8,86,29.86,1.0,SW,11.5,18.4,N/A,Snow,Light Snow,220,2013-03-09 02:35:00
7:55 PM,26.6,24.8,93,29.86,8.0,SW,11.5,-,N/A,Snow,Light Snow,230,2013-03-09 02:55:00
8:15 PM,26.6,23.0,86,29.87,10.0,SW,10.4,-,N/A,,Mostly Cloudy,220,2013-03-09 03:15:00
8:35 PM,26.6,23.0,86,29.88,6.0,SSW,17.3,23.0,N/A,Snow,Light Snow,210,2013-03-09 03:35:00
8:55 PM,26.6,23.0,86,29.89,8.0,SSW,12.7,19.6,N/A,Snow,Light Snow,200,2013-03-09 03:55:00
9:15 PM,26.6,23.0,86,29.88,3.0,South,15.0,19.6,N/A,Snow,Light Snow,190,2013-03-09 04:15:00
9:35 PM,24.8,23.0,93,29.87,7.0,South,11.5,17.3,N/A,,Overcast,180,2013-03-09 04:35:00
9:55 PM,24.8,23.0,93,29.87,10.0,South,11.5,-,N/A,,Mostly Cloudy,180,2013-03-09 04:55:00
10:15 PM,24.8,21.2,86,29.87,10.0,South,12.7,-,N/A,,Mostly Cloudy,170,2013-03-09 05:15:00
10:35 PM,24.8,23.0,93,29.87,10.0,South,12.7,-,N/A,,Scattered Clouds,190,2013-03-09 05:35:00
10:55 PM,24.8,23.0,93,29.87,5.0,South,12.7,-,N/A,,Mostly Cloudy,180,2013-03-09 05:55:00
11:15 PM,24.8,23.0,93,29.87,6.0,South,12.7,-,N/A,,Scattered Clouds,180,2013-03-09 06:15:00
11:35 PM,24.8,23.0,93,29.87,2.5,South,13.8,-,N/A,Rain,Freezing Rain,180,2013-03-09 06:35:00
11:55 PM,24.8,23.0,93,29.86,2.0,South,16.1,20.7,N/A,Rain,Freezing Rain,180,2013-03-09 06:55:00